EW5390 Weather Reports


Display with metric or nautical units.
time (UTC)temp
F
wind
direction
speed
MPH
gust
MPH
rain 1hr
in
rain 24hr
in
rain mn
in
humidity
%
barometer
mb
20260902192553 75 0 0.0 1.0 0.14 0.61 0.17 95 1016.7
20260902192054 75 169 0.0 1.0 0.14 0.61 0.17 95 1017.6
20260902191604 75 167 0.0 1.0 0.13 0.60 0.16 95 1018.0
20260902191054 76 0 0.0 1.0 0.11 0.58 0.14 95 1018.5
20260902190557 76 172 0.0 1.0 0.09 0.56 0.12 94 1019.2
20260902190128 76 0 0.0 1.0 0.09 0.56 0.12 94 1019.4
20260902185549 77 173 0.0 2.0 0.08 0.55 0.11 93 1019.6
20260902185054 77 0 0.0 2.0 0.08 0.55 0.11 93 1019.6
20260902184611 77 174 1.0 2.0 0.06 0.52 0.09 91 1019.4
20260902184053 78 353 0.0 2.0 0.00 0.47 0.03 90 1019.9
20260902183554 78 346 1.0 2.0 0.00 0.47 0.03 91 1019.9
20260902183105 78 344 0.0 2.0 0.00 0.47 0.03 90 1019.7
20260902182550 79 0 0.0 1.0 0.00 0.47 0.03 90 1019.4
20260902182055 79 88 0.0 1.0 0.00 0.47 0.03 90 1019.3
20260902181623 79 136 0.0 1.0 0.00 0.47 0.03 90 1019.3
20260902181051 79 0 0.0 1.0 0.00 0.47 0.03 90 1019.2
20260902180553 79 115 0.0 1.0 0.00 0.47 0.03 89 1019.3
20260902175553 79 48 1.0 2.0 0.00 0.47 0.03 89 1019.3
20260902175054 79 46 0.0 2.0 0.00 0.47 0.03 88 1019.5
20260902174558 79 0 0.0 2.0 0.00 0.47 0.03 88 1019.5
20260902174053 79 197 0.0 3.0 0.00 0.47 0.03 88 1019.3
20260902173551 79 59 1.0 4.0 0.00 0.47 0.03 89 1019.3
20260902173102 79 60 2.0 4.0 0.00 0.47 0.03 89 1019.3
20260902172550 79 63 1.0 3.0 0.00 0.47 0.03 89 1019.3
20260902172053 79 55 1.0 3.0 0.00 0.47 0.03 90 1019.4
20260902171620 79 55 1.0 3.0 0.00 0.47 0.03 90 1019.4
20260902171051 79 73 1.0 3.0 0.00 0.47 0.03 90 1019.4
20260902170551 79 128 0.0 3.0 0.00 0.47 0.03 89 1019.3
20260902170103 79 20 1.0 3.0 0.00 0.47 0.03 90 1019.2
20260902165554 79 80 1.0 3.0 0.00 0.47 0.03 90 1019.1
20260902165052 79 63 1.0 3.0 0.00 0.47 0.03 89 1018.9
20260902164604 79 0 0.0 1.0 0.00 0.47 0.03 89 1018.9
20260902164054 79 0 0.0 1.0 0.00 0.47 0.03 90 1018.9
20260902163555 79 53 0.0 2.0 0.00 0.47 0.03 90 1018.9
20260902163106 79 0 0.0 2.0 0.00 0.47 0.03 90 1019.0
20260902162558 79 51 1.0 3.0 0.00 0.47 0.03 89 1019.1
20260902162057 79 56 0.0 3.0 0.00 0.47 0.03 90 1019.0
20260902161605 79 53 1.0 3.0 0.00 0.47 0.03 89 1019.0
20260902161054 79 68 0.0 3.0 0.00 0.47 0.03 90 1019.1
20260902160551 79 0 1.0 4.0 0.00 0.47 0.03 90 1019.2
20260902155554 79 60 2.0 5.0 0.00 0.47 0.03 91 1019.3
20260902155053 79 58 1.0 6.0 0.00 0.47 0.03 91 1019.2
20260902154556 79 0 2.0 6.0 0.00 0.47 0.03 91 1019.1
20260902154050 79 300 2.0 6.0 0.00 0.47 0.03 91 1019.1
20260902153553 78 64 1.0 5.0 0.00 0.47 0.03 92 1019.1
20260902153104 78 71 1.0 5.0 0.00 0.47 0.03 91 1019.0
20260902152555 78 108 2.0 5.0 0.00 0.47 0.03 92 1019.1
20260902152055 78 57 1.0 5.0 0.00 0.47 0.03 92 1019.2
20260902151604 78 59 2.0 4.0 0.00 0.47 0.03 91 1019.2
20260902151051 78 65 1.0 3.0 0.00 0.47 0.03 91 1019.1
20260902150557 78 64 0.0 3.0 0.00 0.47 0.03 91 1019.1
20260902150113 79 94 1.0 3.0 0.00 0.47 0.03 91 1019.1
20260902145551 79 0 1.0 3.0 0.00 0.47 0.03 92 1019.2
20260902145053 78 138 1.0 3.0 0.00 0.47 0.03 92 1019.1
20260902144607 78 48 0.0 2.0 0.00 0.47 0.03 93 1019.1
20260902144054 78 79 0.0 5.0 0.00 0.47 0.03 93 1019.1
20260902143555 77 77 1.0 5.0 0.00 0.47 0.03 93 1019.1
20260902143108 77 56 1.0 4.0 0.00 0.47 0.03 94 1019.1
20260902142554 76 234 1.0 3.0 0.00 0.47 0.03 94 1019.0
20260902142054 76 62 1.0 4.0 0.00 0.47 0.03 94 1019.0
20260902141606 76 60 1.0 4.0 0.00 0.47 0.03 94 1018.9
20260902141054 76 70 2.0 4.0 0.00 0.47 0.03 95 1018.9
20260902140555 75 63 2.0 4.0 0.00 0.47 0.03 96 1019.1
20260902140100 75 70 0.0 5.0 0.00 0.47 0.03 96 1019.2
20260902135555 75 81 1.0 6.0 0.00 0.47 0.03 96 1019.2
20260902135050 75 53 3.0 6.0 0.00 0.47 0.03 96 1019.1
20260902134613 75 61 2.0 5.0 0.00 0.47 0.03 96 1019.1
20260902134053 75 72 3.0 5.0 0.00 0.47 0.03 96 1019.0
20260902133553 74 67 1.0 3.0 0.00 0.47 0.03 97 1018.8
20260902133102 74 0 2.0 3.0 0.00 0.47 0.03 97 1018.8
20260902132554 74 65 0.0 3.0 0.00 0.47 0.03 97 1018.9
20260902132053 74 0 1.0 3.0 0.00 0.47 0.03 97 1018.8
20260902131602 74 68 2.0 3.0 0.00 0.47 0.03 97 1018.7
20260902131054 74 72 1.0 3.0 0.00 0.47 0.03 97 1018.7
20260902130551 74 61 1.0 3.0 0.00 0.47 0.03 97 1018.6
20260902130059 74 0 1.0 5.0 0.00 0.47 0.03 97 1018.6
20260902125550 73 268 2.0 5.0 0.00 0.47 0.03 97 1018.5
20260902125051 73 60 1.0 5.0 0.00 0.47 0.03 98 1018.5
20260902124556 73 70 0.0 4.0 0.00 0.47 0.03 98 1018.5
20260902124055 73 70 2.0 4.0 0.00 0.47 0.03 98 1018.5
20260902123553 73 67 1.0 3.0 0.00 0.47 0.03 98 1018.5
20260902123103 73 62 0.0 3.0 0.00 0.47 0.03 98 1018.6
20260902122554 73 66 1.0 3.0 0.00 0.47 0.03 98 1018.5
20260902122054 73 57 2.0 3.0 0.00 0.47 0.03 98 1018.5
20260902121600 73 63 1.0 3.0 0.00 0.47 0.03 98 1018.5
20260902121054 73 63 1.0 3.0 0.00 0.47 0.03 98 1018.5
20260902120554 73 62 1.0 3.0 0.00 0.47 0.03 98 1018.5
20260902120101 73 70 0.0 2.0 0.00 0.47 0.03 98 1018.5
20260902115553 73 0 0.0 4.0 0.00 0.47 0.03 98 1018.5
20260902115053 73 66 0.0 4.0 0.00 0.47 0.03 98 1018.6
20260902114557 73 66 2.0 4.0 0.00 0.47 0.03 98 1018.6
20260902114051 73 69 0.0 1.0 0.00 0.47 0.03 98 1018.5
20260902113550 73 68 0.0 1.0 0.00 0.47 0.03 98 1018.5
20260902113054 73 0 0.0 1.0 0.00 0.47 0.03 98 1018.5
20260902112553 72 68 0.0 1.0 0.00 0.47 0.03 98 1018.5
20260902112054 72 0 0.0 1.0 0.00 0.47 0.03 98 1018.4
20260902111601 72 0 0.0 2.0 0.00 0.47 0.03 98 1018.3
20260902111051 72 0 0.0 2.0 0.00 0.47 0.03 98 1018.4
20260902110554 72 0 1.0 2.0 0.00 0.47 0.03 98 1018.4
20260902110057 72 65 0.0 2.0 0.00 0.47 0.03 98 1018.3
20260902105552 72 0 1.0 2.0 0.00 0.47 0.03 98 1018.2
20260902105053 72 64 0.0 1.0 0.00 0.47 0.03 98 1018.2
20260902104556 72 65 0.0 1.0 0.00 0.47 0.03 98 1018.1
20260902104053 72 64 0.0 1.0 0.00 0.47 0.03 98 1018.1
20260902103550 72 0 0.0 1.0 0.00 0.47 0.03 98 1018.0
20260902103055 72 64 0.0 3.0 0.00 0.47 0.03 98 1018.1
20260902102555 72 0 1.0 3.0 0.00 0.47 0.03 98 1018.0
20260902102053 72 63 2.0 3.0 0.00 0.47 0.03 98 1017.8
20260902101600 72 0 1.0 2.0 0.00 0.47 0.03 98 1017.9
20260902101053 72 33 0.0 1.0 0.00 0.47 0.03 98 1017.8
20260902100553 72 33 0.0 1.0 0.00 0.47 0.03 98 1017.7
20260902100101 72 33 0.0 1.0 0.00 0.47 0.03 98 1017.7
20260902095551 72 33 0.0 1.0 0.00 0.47 0.03 98 1017.7
20260902095054 72 33 0.0 1.0 0.00 0.47 0.03 98 1017.7
20260902094558 72 33 0.0 1.0 0.00 0.47 0.03 98 1017.7
20260902094051 72 33 1.0 1.0 0.00 0.47 0.03 98 1017.7
20260902093551 72 0 0.0 0.0 0.00 0.47 0.03 98 1017.6
20260902093058 72 0 0.0 0.0 0.00 0.47 0.03 98 1017.6
20260902092554 72 0 0.0 0.0 0.00 0.47 0.03 98 1017.6
20260902092054 72 0 0.0 0.0 0.00 0.47 0.03 98 1017.5
20260902091600 72 0 0.0 0.0 0.00 0.47 0.03 98 1017.5
20260902091053 72 0 0.0 0.0 0.00 0.47 0.03 98 1017.5
20260902090556 72 0 0.0 0.0 0.00 0.47 0.03 98 1017.5
20260902090058 72 0 0.0 0.0 0.00 0.47 0.03 98 1017.5
20260902085554 72 0 0.0 0.0 0.00 0.47 0.03 98 1017.5
20260902085053 72 0 0.0 0.0 0.00 0.47 0.03 98 1017.4
20260902084609 72 0 0.0 0.0 0.00 0.47 0.03 98 1017.4
20260902084054 72 0 0.0 0.0 0.00 0.47 0.03 98 1017.3
20260902083554 72 0 0.0 1.0 0.00 0.47 0.03 98 1017.3
20260902083055 72 0 0.0 1.0 0.00 0.47 0.03 98 1017.2
20260902082553 72 0 0.0 0.0 0.00 0.47 0.03 98 1017.2
20260902082054 72 0 0.0 1.0 0.00 0.47 0.03 98 1017.1
20260902081605 72 0 0.0 1.0 0.00 0.47 0.03 98 1016.8
20260902081053 72 0 0.0 1.0 0.00 0.47 0.03 98 1016.7
20260902080551 72 63 0.0 1.0 0.00 0.47 0.03 98 1016.8
20260902080059 72 0 0.0 2.0 0.00 0.47 0.03 98 1016.8
20260902075553 72 63 0.0 3.0 0.00 0.47 0.03 98 1016.8
20260902075057 72 63 1.0 3.0 0.00 0.47 0.03 98 1016.8
20260902074612 72 63 2.0 3.0 0.00 0.47 0.03 98 1016.8
20260902074054 72 50 1.0 2.0 0.00 0.47 0.03 98 1016.8
20260902073553 72 50 2.0 2.0 0.00 0.47 0.03 98 1016.7
20260902073059 72 0 0.0 0.0 0.00 0.47 0.03 98 1016.6
20260902072553 72 0 0.0 2.0 0.00 0.47 0.03 98 1016.6
20260902072053 72 0 0.0 2.0 0.00 0.47 0.03 98 1016.5
20260902071602 72 49 2.0 2.0 0.00 0.47 0.03 98 1016.5
20260902071054 72 0 0.0 0.0 0.00 0.47 0.03 98 1016.3
20260902070552 72 0 0.0 0.0 0.00 0.47 0.03 98 1016.3
20260902070106 72 0 0.0 0.0 0.00 0.47 0.03 98 1016.2
20260902065553 72 0 0.0 0.0 0.00 0.47 0.03 98 1016.2
20260902065051 72 0 0.0 0.0 0.00 0.47 0.03 97 1016.2
20260902064601 72 0 0.0 0.0 0.00 0.47 0.03 98 1016.3
20260902064054 72 0 0.0 1.0 0.00 0.47 0.03 98 1016.3
20260902063553 72 0 0.0 1.0 0.00 0.47 0.03 98 1016.3
20260902063113 72 0 0.0 1.0 0.00 0.47 0.03 97 1016.3
20260902062554 72 0 0.0 0.0 0.00 0.47 0.03 97 1016.6
20260902062054 72 0 0.0 0.0 0.00 0.47 0.03 97 1016.6
20260902061608 72 0 0.0 0.0 0.00 0.47 0.03 97 1016.6
20260902061055 72 0 0.0 0.0 0.00 0.47 0.03 97 1016.7
20260902060551 72 0 0.0 0.0 0.00 0.47 0.03 97 1016.8
20260902060126 72 0 0.0 1.0 0.00 0.47 0.03 97 1016.7
20260902055553 72 0 0.0 1.0 0.00 0.47 0.03 97 1016.7
20260902055053 72 0 0.0 1.0 0.00 0.47 0.03 97 1016.6
20260902054608 72 131 0.0 0.0 0.01 0.47 0.03 97 1016.7
20260902054052 72 0 0.0 0.0 0.02 0.47 0.03 97 1017.0
20260902053553 72 0 0.0 0.0 0.02 0.47 0.03 97 1017.1
20260902053057 72 0 0.0 0.0 0.02 0.47 0.03 97 1016.9
20260902052554 72 0 0.0 1.0 0.02 0.47 0.03 97 1016.8
20260902052053 72 0 0.0 1.0 0.02 0.47 0.03 97 1016.8
20260902051603 72 0 0.0 1.0 0.02 0.47 0.03 97 1016.8
20260902051053 73 0 0.0 1.0 0.03 0.47 0.03 97 1016.6
20260902050553 73 0 0.0 1.0 0.03 0.47 0.03 97 1016.3
20260902050104 73 0 0.0 1.0 0.03 0.47 0.03 97 1016.2
20260902045550 72 0 0.0 0.0 0.03 0.47 0.03 97 1016.4
20260902045054 72 0 0.0 1.0 0.03 0.47 0.03 97 1016.6
20260902044607 72 0 0.0 1.0 0.02 0.46 0.02 97 1016.8
20260902044051 72 0 0.0 0.0 0.01 0.45 0.01 97 1016.7
20260902043550 72 0 0.0 0.0 0.01 0.45 0.01 97 1016.8
20260902043112 72 0 0.0 1.0 0.01 0.45 0.01 97 1017.0
20260902042556 72 0 0.0 1.0 0.01 0.45 0.01 97 1017.1
20260902042054 72 131 0.0 1.0 0.01 0.45 0.01 97 1017.2
20260902041608 72 0 0.0 2.0 0.01 0.45 0.01 97 1017.4
20260902041055 72 131 1.0 6.0 0.00 0.44 0.00 97 1017.4
20260902040553 72 0 1.0 9.0 0.00 0.44 0.00 97 1017.4
20260902040107 72 63 2.0 9.0 0.00 0.44 0.00 97 1017.2
20260902035553 72 58 4.0 7.0 0.00 0.44 0.44 97 1017.1
20260902035052 72 1 0.0 3.0 0.00 0.44 0.44 97 1016.4
20260902034614 72 1 2.0 3.0 0.00 0.44 0.44 97 1016.2
20260902034050 71 164 0.0 1.0 0.00 0.44 0.44 97 1016.1
20260902033553 71 166 0.0 1.0 0.00 0.44 0.44 97 1016.0
20260902033104 71 169 0.0 2.0 0.00 0.44 0.44 97 1016.0
20260902032555 71 0 0.0 2.0 0.00 0.44 0.44 97 1015.7
20260902032053 71 169 1.0 2.0 0.16 0.44 0.44 96 1015.7
20260902031604 71 171 0.0 2.0 0.40 0.44 0.44 96 1015.5
20260902031057 71 0 0.0 2.0 0.44 0.44 0.44 96 1015.5
20260902030555 71 195 0.0 2.0 0.44 0.44 0.44 96 1015.6
20260902030059 71 172 1.0 2.0 0.44 0.44 0.44 96 1015.4
20260902025553 71 160 0.0 2.0 0.44 0.44 0.44 96 1015.6
20260902025057 71 174 0.0 2.0 0.44 0.44 0.44 95 1015.7
20260902024557 71 180 0.0 2.0 0.44 0.44 0.44 95 1015.9
20260902024053 71 0 0.0 3.0 0.44 0.44 0.44 95 1016.0
20260902023554 71 0 1.0 10.0 0.44 0.44 0.44 94 1016.3
20260902023104 72 240 6.0 12.0 0.44 0.44 0.44 94 1016.6
20260902022554 73 216 4.0 12.0 0.44 0.44 0.44 93 1017.0
20260902022053 74 75 5.0 13.0 0.27 0.27 0.27 92 1017.8
20260902021609 76 46 3.0 14.0 0.03 0.03 0.03 89 1018.0
20260902021054 77 72 6.0 14.0 0.00 0.00 0.00 85 1017.3
20260902020554 78 303 5.0 14.0 0.00 0.00 0.00 82 1016.9
20260902020059 79 34 5.0 17.0 0.00 0.00 0.00 81 1016.3
20260902015554 80 56 6.0 17.0 0.00 0.00 0.00 80 1016.3
20260902015054 81 324 4.0 15.0 0.00 0.00 0.00 82 1015.9
20260902014600 81 51 6.0 15.0 0.00 0.00 0.00 86 1015.7
20260902014054 80 153 0.0 0.0 0.00 0.00 0.00 90 1014.6
20260902013554 80 0 0.0 0.0 0.00 0.00 0.00 90 1014.3
20260902013100 80 0 0.0 0.0 0.00 0.00 0.00 90 1014.3
20260902012553 80 0 0.0 0.0 0.00 0.00 0.00 90 1014.3
20260902012053 80 0 0.0 0.0 0.00 0.00 0.00 90 1014.1
20260902011559 80 0 0.0 0.0 0.00 0.00 0.00 90 1014.0
20260902011054 80 0 0.0 0.0 0.00 0.00 0.00 90 1013.8
20260902010553 80 0 0.0 0.0 0.00 0.00 0.00 90 1013.8
20260902005553 81 0 0.0 0.0 0.00 0.00 0.00 89 1014.0
20260902005058 81 0 0.0 0.0 0.00 0.00 0.00 89 1013.7
20260902004605 81 0 0.0 0.0 0.00 0.00 0.00 89 1013.8
20260902004054 81 0 0.0 0.0 0.00 0.00 0.00 89 1013.8
20260902003553 81 0 0.0 0.0 0.00 0.00 0.00 89 1013.9
20260902003135 81 0 0.0 0.0 0.00 0.00 0.00 89 1013.7
20260902002552 81 0 0.0 0.0 0.00 0.00 0.00 89 1013.8
20260902002052 81 0 0.0 0.0 0.00 0.00 0.00 88 1013.7
20260902001559 81 0 0.0 0.0 0.00 0.00 0.00 88 1013.3
20260902001054 82 0 0.0 0.0 0.00 0.00 0.00 88 1013.0
20260902000552 82 0 0.0 0.0 0.00 0.00 0.00 88 1012.9
20260902000101 82 0 0.0 0.0 0.00 0.00 0.00 88 1013.0
20260901235554 82 0 0.0 0.0 0.00 0.00 0.00 87 1013.1
20260901235054 82 0 0.0 0.0 0.00 0.00 0.00 87 1013.3
20260901234603 82 0 0.0 0.0 0.00 0.00 0.00 87 1013.5
20260901234054 83 0 0.0 0.0 0.00 0.00 0.00 87 1013.6
20260901233554 83 0 0.0 0.0 0.00 0.00 0.00 87 1013.7
20260901233103 83 0 0.0 0.0 0.00 0.00 0.00 87 1013.8
20260901232554 83 0 0.0 0.0 0.00 0.00 0.00 86 1013.9
20260901232054 83 0 0.0 0.0 0.00 0.00 0.00 86 1013.9
20260901231604 84 0 0.0 0.0 0.00 0.00 0.00 86 1013.6
20260901231053 84 0 0.0 0.0 0.00 0.00 0.00 86 1013.6
20260901230556 84 0 0.0 0.0 0.00 0.00 0.00 85 1013.8
20260901230058 84 0 0.0 0.0 0.00 0.00 0.00 85 1013.8
20260901225553 85 0 0.0 0.0 0.00 0.00 0.00 85 1013.8
20260901225054 85 0 0.0 0.0 0.00 0.00 0.00 84 1013.9
20260901224606 85 153 0.0 0.0 0.00 0.00 0.00 83 1013.8
20260901224054 85 153 0.0 0.0 0.00 0.00 0.00 83 1013.9
20260901223554 85 0 0.0 1.0 0.00 0.00 0.00 83 1013.9
20260901223101 86 0 0.0 1.0 0.00 0.00 0.00 83 1013.8
20260901222552 86 0 0.0 1.0 0.00 0.00 0.00 83 1013.8
20260901222054 86 153 0.0 1.0 0.00 0.00 0.00 82 1013.8
20260901221616 86 0 0.0 1.0 0.00 0.00 0.00 82 1013.9
20260901221054 86 126 0.0 1.0 0.00 0.00 0.00 82 1013.7
20260901220554 87 126 0.0 1.0 0.00 0.00 0.00 82 1013.7
20260901220059 87 0 0.0 1.0 0.00 0.00 0.00 81 1013.9
20260901215554 87 0 0.0 1.0 0.00 0.00 0.00 81 1014.0
20260901215054 87 153 0.0 0.0 0.00 0.00 0.00 81 1014.0
20260901214602 87 0 0.0 2.0 0.00 0.00 0.00 81 1014.0
20260901214053 87 0 0.0 2.0 0.00 0.00 0.00 81 1014.0
20260901213618 88 0 0.0 1.0 0.00 0.00 0.00 80 1014.0
20260901213105 88 0 0.0 1.0 0.00 0.00 0.00 79 1014.0
20260901212554 88 0 0.0 1.0 0.00 0.00 0.00 79 1014.2
20260901212053 88 0 0.0 1.0 0.00 0.00 0.00 78 1014.2
20260901211600 88 233 0.0 1.0 0.00 0.00 0.00 77 1014.2
20260901211054 88 233 0.0 2.0 0.00 0.00 0.00 78 1014.2
20260901210553 88 0 0.0 2.0 0.00 0.00 0.00 78 1014.2
20260901210130 88 0 0.0 3.0 0.00 0.00 0.00 77 1014.3
20260901205554 88 314 0.0 3.0 0.00 0.00 0.00 77 1014.3
20260901205054 88 314 1.0 3.0 0.00 0.00 0.00 78 1014.4
20260901204559 88 319 0.0 1.0 0.00 0.00 0.00 76 1014.3
20260901204054 88 319 0.0 2.0 0.00 0.00 0.00 75 1014.2
20260901203554 88 0 0.0 3.0 0.00 0.00 0.00 76 1014.2
20260901203103 88 319 1.0 3.0 0.00 0.00 0.00 74 1014.3
20260901202554 88 282 0.0 3.0 0.00 0.00 0.00 75 1014.3
20260901202055 88 325 0.0 3.0 0.00 0.00 0.00 75 1014.4
20260901201603 88 326 1.0 3.0 0.00 0.00 0.00 74 1014.5
20260901201055 87 236 0.0 2.0 0.00 0.00 0.00 75 1014.5
20260901200556 87 225 0.0 2.0 0.00 0.00 0.00 78 1014.6
20260901200058 87 242 0.0 2.0 0.00 0.00 0.00 79 1014.5
20260901195553 87 0 0.0 2.0 0.00 0.00 0.00 79 1014.6
20260901195054 86 0 0.0 1.0 0.00 0.00 0.00 77 1014.7
20260901194604 86 0 0.0 1.0 0.00 0.00 0.00 78 1014.9
20260901194056 86 0 0.0 1.0 0.00 0.00 0.00 79 1015.0
20260901193557 87 170 0.0 1.0 0.00 0.00 0.00 78 1015.1
20260901193107 87 314 0.0 1.0 0.00 0.00 0.00 76 1015.1